This demonstration page uses our WeatherBlox Daily Observations layout. Learn more.

Left ArrowRight Arrow

Hourly Observations for January 24, 2016

Temp ( °F °C ) Dew Point ( °F °C ) Humidity (%) Winds ( mph kmh ) Pressure ( in mb ) Visibility ( mi km ) Precip ( " mm )
12:53 am 00:53 Clear with Mist and Fog 24 -4.4 21 -6.1 88 88 SSW 8 13 29.91 1013 6 10 0.00 0.00
1:53 am 01:53 Clear with Mist and Fog 23 -5 20 -6.7 88 88 SW 5 7 29.89 1012 6 10 0.00 0.00
2:53 am 02:53 Clear 24 -4.4 21 -6.1 88 88 WSW 6 9 29.88 1012 7 11 0.00 0.00
3:53 am 03:53 Clear 21 -6.1 18 -7.8 88 88 W 3 6 29.87 1011 7 11 0.00 0.00
4:53 am 04:53 Clear 23 -5 20 -6.7 88 88 WSW 3 6 29.83 1010 7 11 0.00 0.00
5:53 am 05:53 Clear 24 -4.4 21 -6.1 88 88 Calm 29.83 1010 7 11 0.00 0.00
6:53 am 06:53 Clear 24 -4.4 21 -6.1 88 88 S 5 7 29.83 1010 7 11 0.00 0.00
7:53 am 07:53 Sunny with Mist and Fog 24 -4.4 21 -6.1 88 88 S 3 6 29.83 1010 6 10 0.00 0.00
8:53 am 08:53 Sunny with Mist and Fog 23 -5 21 -6.1 92 92 SSE 3 6 29.83 1010 4 6 0.00 0.00
9:53 am 09:53 Sunny with Mist and Fog 27 -2.8 23 -5 85 85 Calm 29.81 1009 5 8 0.00 0.00
10:53 am 10:53 Sunny with Mist and Fog 29 -1.7 25 -3.9 85 85 Calm 29.81 1010 6 10 0.00 0.00
11:53 am 11:53 Sunny 34 1.1 27 -2.8 76 76 NE 3 6 29.76 1008 7 11 0.00 0.00
12:53 pm 12:53 Sunny 33 0.6 28 -2.2 82 82 Calm 29.73 1007 7 11 0.00 0.00
1:53 pm 13:53 Sunny 36 2.2 29 -1.7 76 76 Calm 29.70 1006 8 13 0.00 0.00
2:53 pm 14:53 Hazy 35 1.7 29 -1.7 78 78 ESE 3 6 29.69 1006 6 10 0.00 0.00
3:53 pm 15:53 Sunny 35 1.7 28 -2.2 76 76 ESE 8 13 29.68 1005 7 11 0.00 0.00
4:53 pm 16:53 Hazy 32 0 26 -3.3 79 79 ESE 10 17 29.67 1005 5 8 0.00 0.00
5:53 pm 17:53 Clear with Mist and Fog 29 -1.7 25 -3.9 85 85 ESE 9 15 29.68 1005 5 8 0.00 0.00
6:53 pm 18:53 Clear with Mist and Fog 28 -2.2 25 -3.9 88 88 ESE 10 17 29.70 1006 5 8 0.00 0.00
7:06 pm 19:06 Partly Cloudy with Mist and Fog 28 -2 25 -4 86 86 SE 8 13 29.77 1008 5 8 0.00 0.00
7:15 pm 19:15 Mostly Cloudy with Mist and Fog 29 -1.7 25 -3.9 85 85 SSE 8 13 29.77 1008 5 8 0.00 0.00
7:53 pm 19:53 Cloudy with Mist and Fog 30 -1.1 27 -2.8 88 88 SSE 8 13 29.71 1006 5 8 0.00 0.00
8:53 pm 20:53 Cloudy with Mist and Fog 32 0 28 -2.2 85 85 Calm 29.71 1006 5 8 0.00 0.00
9:53 pm 21:53 Cloudy with Mist and Fog 31 -0.6 28 -2.2 89 89 ENE 3 6 29.71 1006 5 8 0.00 0.00
10:53 pm 22:53 Cloudy with Mist and Fog 32 0 29 -1.7 88 88 NNW 5 7 29.71 1006 4 6 0.00 0.00
11:53 pm 23:53 Cloudy with Mist and Fog 31 -0.6 28 -2.2 89 89 N 9 15 29.69 1006 3 5 0.00 0.00

Powered by AerisWeather